Home   Weather   Cocoa Beach   Past weeks

Flag for USA Past Weather in Cocoa Beach, Florida, USA — Yesterday and Last 2 Weeks

Now
88 °F

Sunny.


Feels Like: 99 °F
Forecast: 75 / 90 °F
Wind: 14 mph from Southeast

Location: Cocoa / Patrick Air Force Base

Current Time: Aug 19, 2017 at 6:45:01 pm

Latest Report: Aug 19, 2017 at 5:58 pm


Visibility: 10 mi

Pressure: 29.96 "Hg

Humidity: 70%

Dew Point: 76 °F

Location of Cocoa BeachLocation

Past Weather in Cocoa Beach — Graph

°F

Cocoa Beach Temperature Yesterday

Maximum temperature yesterday: 88 °F (at 2:58 pm)
Minimum temperature yesterday: 77 °F (at 5:58 am)
Average temperature yesterday: 83 °F

High & Low Weather Summary for the Past Weeks

 TemperatureHumidityPressure
High91 °F (Aug 15, 11:58 am)100% (Aug 6, 5:13 am)30.12 "Hg (Aug 6, 5:13 am)
Low75 °F (Aug 11, 4:35 pm)57% (Aug 15, 11:58 am)29.94 "Hg (Aug 14, 4:58 pm)
Average83 °F84%30.04 "Hg
* Reported Aug 4 4:58 pm — Aug 19 4:58 pm, Cocoa Beach. Weather by CustomWeather, © 2017

Note: Actual official high and low records may vary slightly from our data, if they occured in-between our weather recording intervals... More about our weather records

Advertising

Cocoa Beach Weather History for the Previous 24 Hours

Scroll right to see more
 ConditionsComfort  
Time TempWeatherWind HumidityBarometerVisibility
4:58 pm
Sat, Aug 19
88 °FSunny.13 mph68%29.97 "Hg10 mi
3:58 pm89 °FSunny.10 mph64%29.97 "Hg10 mi
2:58 pm89 °FSunny.10 mph65%29.98 "Hg10 mi
1:58 pm89 °FSunny.10 mph66%30.01 "Hg10 mi
12:58 pm87 °FSunny.9 mph72%30.02 "Hg10 mi
11:58 am87 °FSunny.8 mph72%30.03 "Hg10 mi
10:58 am87 °FSunny.No wind65%30.03 "Hg10 mi
9:58 am86 °FSunny.3 mph71%30.03 "Hg10 mi
8:58 am83 °FSunny.3 mph77%30.01 "Hg10 mi
7:58 am79 °FSunny.No wind87%30.00 "Hg10 mi
6:58 am78 °FSunny.No wind86%29.99 "Hg10 mi
5:58 am78 °FClear.No wind86%29.99 "Hg10 mi
4:58 am78 °FClear.5 mph80%29.99 "Hg10 mi
3:58 am79 °FClear.3 mph81%29.99 "Hg10 mi
2:58 am78 °FClear.6 mph83%30.00 "Hg10 mi
1:58 am78 °FClear.10 mph86%30.00 "Hg10 mi
12:58 am81 °FClear.5 mph80%30.01 "Hg10 mi
11:58 pm
Fri, Aug 18
78 °FClear.10 mph82%30.01 "Hg10 mi
10:58 pm78 °FClear.7 mph78%30.04 "Hg10 mi
9:58 pm80 °FPartly cloudy.13 mph81%30.07 "Hg10 mi
8:58 pm80 °FPassing clouds.9 mph80%30.03 "Hg10 mi
7:58 pm80 °FMostly cloudy.14 mph83%30.04 "Hg10 mi
7:07 pm84 °FPartly sunny.15 mph70%30.02 "Hg10 mi
6:58 pm85 °FBroken clouds.15 mph65%30.02 "Hg10 mi
6:43 pm86 °FThundershowers. Scattered clouds.13 mph70%30.00 "Hg10 mi
Weather by CustomWeather, © 2017

See weather overviewHow to use our weather pages